[[{"header":{"parameterUnit":"m.s-1","parameterCategory":1,"la1":30.2991,"la2":30.254,"lo1":-89.0895,"lo2":-89.0444,"dy":0.0017,"dx":0.0017,"nx":28,"ny":28,"refTime":"2025-04-12T09:00:00:Z","depth":0,"parameterNumber":2,"parameterNumberName":"U-component_of_WINDS"},"data":[0,0,0,0,0,0,0,0,0,0,0,0,0,0,0,0,0,0,0,0,0,0,0,0,0,0,0,0,0,0,0,0,0,0,0,0,0,0,0,0,0,0,0,0,0,0,0,0,0,0,0,0,0,0,0,0,0,0,1.7513,1.7513,0,1.7559,1.756,1.756,1.7574,1.7574,1.7573,1.7573,1.7622,1.7623,1.7625,0,0,0,0,0,0,0,0,0,0,0,0,0,1.7438,1.7439,1.7513,1.7513,1.7514,1.7559,1.756,1.7561,1.7574,1.7574,1.7573,1.7573,1.7621,1.7623,1.7625,0,0,0,0,0,0,0,0,0,0,0,0,0,1.7476,1.744,1.7513,1.7526,1.7528,1.7559,1.756,1.7561,1.7574,1.7573,1.7573,1.7573,1.7621,1.7623,1.7625,1.7647,0,0,1.7632,1.7633,0,0,0,0,0,0,0,0,1.7474,1.7479,1.7523,1.7525,1.7527,1.756,1.7551,1.759,1.7574,1.7556,1.7573,1.7573,1.7602,1.7606,1.7615,1.765,1.7652,1.7633,1.7634,1.7635,1.7636,0,0,0,0,0,0,0,1.7471,1.7477,1.7531,1.7524,1.7526,1.7531,1.7535,1.7559,1.7581,1.7558,1.7559,1.7564,1.7603,1.7613,1.7617,1.7652,1.7633,1.7635,1.7636,1.7637,1.771,1.771,0,0,0,0,0,0,1.7466,1.7475,1.753,1.7533,1.7499,1.7532,1.7538,1.755,1.758,1.7585,1.7564,1.7565,1.7609,1.7614,1.7618,1.7647,1.7635,1.7637,1.7638,1.7709,1.771,1.7711,0,0,0,0,0,0,1.7464,1.7471,1.7528,1.7504,1.7511,1.7534,1.7548,1.7551,1.7561,1.7585,1.759,1.7571,1.7609,1.7615,1.764,1.7649,1.7638,1.764,1.7709,1.7709,1.771,1.7705,0,0,0,0,0,0,1.7462,1.747,1.7478,1.7504,1.7513,1.7548,1.7548,1.7552,1.7565,1.7566,1.7592,1.7597,1.7609,1.7637,1.7643,1.7652,1.7642,1.7708,1.7709,1.771,1.7704,1.7705,1.7706,0,0,0,0,0,1.7459,1.7474,1.7478,1.7485,1.7523,1.7549,1.7554,1.7568,1.7566,1.7574,1.759,1.7596,1.7647,1.7639,1.7646,1.7656,1.7707,1.7709,1.771,1.7704,1.7705,1.7706,0,0,0,0,0,0,1.7448,1.7478,1.7482,1.7506,1.7525,1.7551,1.7562,1.7568,1.7588,1.7588,1.7605,1.7611,1.7636,1.7649,1.7639,1.7681,1.7678,1.768,1.7671,1.7672,1.7673,1.767,1.7644,0,0,0,0,0,1.7448,1.7466,1.7491,1.751,1.7519,1.7539,1.7551,1.756,1.758,1.7588,1.7606,1.7626,1.7647,1.7661,1.7681,1.7707,1.7714,1.7717,1.7718,1.7719,1.7721,1.7738,1.774,1.7715,1.7715,1.7715,0,0,1.7449,1.7467,1.7477,1.7508,1.7524,1.7543,1.7545,1.7565,1.758,1.7592,1.7617,1.7631,1.7655,1.7681,1.7693,1.7692,1.773,1.7721,1.7721,1.7723,1.7739,1.7741,1.7744,1.7715,1.7715,1.7715,0,0,1.746,1.7475,1.7493,1.7509,1.7533,1.7546,1.7551,1.7577,1.7586,1.7612,1.7622,1.764,1.7676,1.7693,1.7706,1.7727,1.7733,1.7733,1.7738,1.7754,1.7756,1.7758,1.7766,1.7769,1.7735,1.7735,1.7735,0,1.7457,1.7486,1.7501,1.7521,1.7535,1.7547,1.7566,1.7581,1.7611,1.762,1.7619,1.7666,1.7682,1.7713,1.7719,1.7729,1.7735,1.773,1.7754,1.7756,1.7758,1.7766,1.7769,1.7735,1.7735,1.7735,1.7735,0,1.7482,1.7502,1.7514,1.7543,1.7558,1.7577,1.7597,1.7611,1.762,1.7634,1.7661,1.7682,1.7708,1.7716,1.7725,1.775,1.7749,1.7751,1.7748,1.776,1.7768,1.7772,1.7735,1.7735,1.7735,1.7735,0,0,1.7485,1.7524,1.7528,1.7542,1.7571,1.7587,1.7608,1.7634,1.7646,1.7667,1.7686,1.7717,1.7719,1.7735,1.7746,1.776,1.7776,1.776,1.7761,1.7763,1.7807,1.7805,1.7808,1.7781,1.7782,1.7782,1.7805,0,1.75,1.7537,1.7553,1.7583,1.7603,1.7616,1.7635,1.7655,1.767,1.7689,1.7706,1.7728,1.7729,1.7739,1.7753,1.7771,1.7785,1.777,1.78,1.7801,1.7793,1.7812,1.781,1.783,1.7808,1.7809,1.7809,0,1.7522,1.7543,1.7576,1.7604,1.7613,1.7629,1.7655,1.7673,1.7698,1.7708,1.7726,1.7737,1.7761,1.7757,1.7792,1.7781,1.7795,1.7806,1.7807,1.781,1.7805,1.7817,1.7837,1.784,1.7814,1.7814,1.7813,0,1.7522,1.7559,1.7584,1.7595,1.7629,1.764,1.7655,1.7679,1.7694,1.7717,1.7727,1.7753,1.7767,1.7787,1.7806,1.7801,1.7839,1.7836,1.7849,1.7848,1.7855,1.7855,1.7879,1.7864,1.7864,1.7864,1.7864,0,1.7537,1.7556,1.7584,1.7599,1.7622,1.7641,1.7664,1.768,1.7701,1.7721,1.7734,1.7752,1.7775,1.7797,1.7812,1.7839,1.7845,1.7854,1.7858,1.7853,1.7852,1.7862,1.7861,1.7865,1.7864,1.7864,1.7864,0,1.754,1.7559,1.7587,1.7618,1.7626,1.7641,1.7668,1.7684,1.77,1.7725,1.7732,1.7757,1.7784,1.7804,1.7838,1.7848,1.7877,1.7881,1.7869,1.7871,1.7882,1.7881,1.7914,1.7919,1.79,1.79,1.7901,0,1.7548,1.7563,1.7596,1.761,1.7624,1.7647,1.7663,1.7683,1.7699,1.7729,1.7742,1.777,1.7793,1.7835,1.7857,1.7884,1.7889,1.7898,1.7893,1.7888,1.789,1.7889,1.7891,1.7899,1.7899,1.7899,1.7899,0,1.7561,1.757,1.7592,1.7619,1.7637,1.7659,1.7681,1.7692,1.7716,1.7734,1.7761,1.7779,1.7815,1.7843,1.7873,1.7889,1.7899,1.7901,1.7905,1.79,1.7893,1.7898,1.7871,1.79,1.79,1.79,1.79,1.79,1.7567,1.7582,1.7608,1.7633,1.7652,1.7672,1.769,1.7709,1.7731,1.7762,1.7773,1.7802,1.7828,1.7869,1.7886,1.791,1.791,1.7916,1.7918,1.7919,1.7919,1.7889,1.7915,1.7915,1.7915,1.7915,1.7915,0,1.7581,1.7599,1.7621,1.7652,1.7672,1.768,1.7706,1.7722,1.7747,1.7771,1.7794,1.7826,1.7854,1.7879,1.7909,1.7923,1.7928,1.793,1.7929,1.7933,1.7917,1.791,1.7925,1.7925,1.7925,1.7925,1.7925,1.7925,1.759,1.7617,1.763,1.7667,1.7685,1.7713,1.7727,1.7747,1.7766,1.7802,1.7825,1.7842,1.7867,1.7898,1.7925,1.7932,1.7942,1.7943,1.7951,1.7935,1.7934,1.7933,1.7927,1.7945,1.7945,1.7966,1.7966,1.7966]},{"header":{"parameterUnit":"m.s-1","parameterCategory":1,"la1":30.2991,"la2":30.254,"lo1":-89.0895,"lo2":-89.0444,"dy":0.0017,"dx":0.0017,"nx":28,"ny":28,"refTime":"2025-04-12T09:00:00:Z","depth":0,"parameterNumber":3,"parameterNumberName":"V-component_of_WINDS"},"data":[0,0,0,0,0,0,0,0,0,0,0,0,0,0,0,0,0,0,0,0,0,0,0,0,0,0,0,0,0,0,0,0,0,0,0,0,0,0,0,0,0,0,0,0,0,0,0,0,0,0,0,0,0,0,0,0,0,0,-4.1793,-4.1793,0,-4.1834,-4.1834,-4.1835,-4.1894,-4.1895,-4.1896,-4.1897,-4.1932,-4.1932,-4.1932,0,0,0,0,0,0,0,0,0,0,0,0,0,-4.1761,-4.1762,-4.1793,-4.1793,-4.1794,-4.1834,-4.1834,-4.1835,-4.1893,-4.1895,-4.1896,-4.1897,-4.1932,-4.1932,-4.1932,0,0,0,0,0,0,0,0,0,0,0,0,0,-4.1786,-4.1762,-4.1793,-4.1828,-4.1832,-4.1834,-4.1834,-4.1835,-4.1893,-4.1895,-4.1896,-4.1898,-4.1932,-4.1932,-4.1932,-4.1901,0,0,-4.1932,-4.1932,0,0,0,0,0,0,0,0,-4.1784,-4.1787,-4.1822,-4.1826,-4.183,-4.186,-4.1836,-4.1857,-4.1893,-4.187,-4.1897,-4.1899,-4.1907,-4.1909,-4.1913,-4.1903,-4.1904,-4.1932,-4.1932,-4.1932,-4.1932,0,0,0,0,0,0,0,-4.1782,-4.1785,-4.1809,-4.1823,-4.1827,-4.1841,-4.1846,-4.184,-4.1879,-4.1872,-4.1876,-4.1881,-4.1909,-4.1913,-4.1914,-4.1905,-4.1932,-4.1932,-4.1932,-4.1932,-4.1872,-4.187,0,0,0,0,0,0,-4.1776,-4.1784,-4.1807,-4.181,-4.1811,-4.184,-4.1846,-4.1849,-4.1879,-4.1885,-4.1879,-4.1883,-4.1912,-4.1914,-4.1916,-4.1881,-4.1932,-4.1932,-4.1932,-4.1873,-4.1871,-4.187,0,0,0,0,0,0,-4.1775,-4.1778,-4.1806,-4.1798,-4.1803,-4.1839,-4.1842,-4.1849,-4.1853,-4.1885,-4.1891,-4.1876,-4.1913,-4.1916,-4.1905,-4.1883,-4.1932,-4.1932,-4.1875,-4.1873,-4.1871,-4.181,0,0,0,0,0,0,-4.1774,-4.1777,-4.1766,-4.1797,-4.1803,-4.1795,-4.184,-4.1848,-4.1853,-4.1859,-4.1884,-4.1889,-4.1915,-4.1905,-4.1905,-4.1884,-4.1932,-4.1877,-4.1874,-4.1871,-4.1814,-4.1806,-4.1799,0,0,0,0,0,-4.1773,-4.1746,-4.1765,-4.1768,-4.179,-4.1794,-4.1797,-4.1828,-4.1851,-4.184,-4.1861,-4.1888,-4.1886,-4.1903,-4.1904,-4.1882,-4.1879,-4.1875,-4.1872,-4.1818,-4.1808,-4.18,0,0,0,0,0,0,-4.1708,-4.175,-4.1772,-4.1755,-4.1771,-4.1804,-4.179,-4.1817,-4.1824,-4.1829,-4.1866,-4.1871,-4.1856,-4.1868,-4.1886,-4.1854,-4.1887,-4.1883,-4.1846,-4.1836,-4.1829,-4.1824,-4.1932,0,0,0,0,0,-4.1692,-4.1693,-4.173,-4.1711,-4.1718,-4.1753,-4.1755,-4.1779,-4.1796,-4.1802,-4.1822,-4.1836,-4.1838,-4.1839,-4.1843,-4.1818,-4.1824,-4.1804,-4.1796,-4.179,-4.1785,-4.1773,-4.1764,-4.1858,-4.1858,-4.1858,0,0,-4.1658,-4.1681,-4.1679,-4.1698,-4.1713,-4.1712,-4.1757,-4.1754,-4.1753,-4.1801,-4.1792,-4.1808,-4.1825,-4.1808,-4.1801,-4.1818,-4.1762,-4.1786,-4.178,-4.1779,-4.1769,-4.176,-4.1752,-4.1856,-4.1856,-4.1856,0,0,-4.1595,-4.1614,-4.16,-4.1615,-4.1639,-4.1663,-4.166,-4.169,-4.1703,-4.1695,-4.1732,-4.1731,-4.1734,-4.1746,-4.1752,-4.1698,-4.1723,-4.1698,-4.1657,-4.1645,-4.1637,-4.1631,-4.161,-4.1602,-4.1694,-4.1694,-4.1694,0,-4.1548,-4.1549,-4.1589,-4.1584,-4.1591,-4.1639,-4.1625,-4.1637,-4.1659,-4.1662,-4.1682,-4.1689,-4.1705,-4.169,-4.1677,-4.1682,-4.1678,-4.1693,-4.1636,-4.163,-4.1624,-4.1604,-4.1597,-4.1691,-4.1691,-4.1692,-4.1692,0,-4.1491,-4.1491,-4.1478,-4.1501,-4.1507,-4.1497,-4.1535,-4.1536,-4.1561,-4.1583,-4.1575,-4.1596,-4.1605,-4.1605,-4.1627,-4.1594,-4.1604,-4.1629,-4.1662,-4.1611,-4.1593,-4.1586,-4.1686,-4.1687,-4.1688,-4.1689,0,0,-4.1382,-4.1432,-4.1425,-4.1437,-4.1469,-4.1469,-4.1462,-4.1475,-4.1474,-4.149,-4.1483,-4.1488,-4.1513,-4.152,-4.1545,-4.1535,-4.1489,-4.1562,-4.1563,-4.1545,-4.1452,-4.143,-4.1421,-4.1508,-4.1507,-4.1506,-4.145,0,-4.1323,-4.1315,-4.1352,-4.1334,-4.1334,-4.1382,-4.1376,-4.1394,-4.1415,-4.1418,-4.1442,-4.1443,-4.1477,-4.1481,-4.1474,-4.1496,-4.147,-4.1501,-4.15,-4.1499,-4.149,-4.1412,-4.1388,-4.1334,-4.1443,-4.1442,-4.1441,0,-4.1251,-4.1265,-4.1247,-4.1282,-4.1284,-4.1278,-4.1293,-4.1296,-4.1318,-4.1334,-4.1344,-4.1375,-4.137,-4.1405,-4.1397,-4.1417,-4.142,-4.1431,-4.143,-4.1427,-4.1464,-4.1404,-4.1317,-4.1308,-4.1431,-4.1432,-4.1433,0,-4.117,-4.1186,-4.1178,-4.1187,-4.1227,-4.1222,-4.1238,-4.1262,-4.1268,-4.1281,-4.1285,-4.1297,-4.1302,-4.131,-4.1342,-4.1365,-4.1331,-4.1368,-4.1342,-4.1341,-4.1328,-4.1328,-4.1237,-4.1336,-4.1336,-4.1336,-4.1336,0,-4.1098,-4.1084,-4.1142,-4.1136,-4.1123,-4.1168,-4.1153,-4.1174,-4.1195,-4.1194,-4.1236,-4.1233,-4.1279,-4.1281,-4.1307,-4.1296,-4.1298,-4.131,-4.1316,-4.1304,-4.1302,-4.1303,-4.1306,-4.1334,-4.1334,-4.1335,-4.1335,0,-4.1003,-4.1042,-4.1036,-4.1077,-4.1087,-4.1075,-4.111,-4.1105,-4.1132,-4.113,-4.1131,-4.1172,-4.1177,-4.1212,-4.1224,-4.1241,-4.1219,-4.1235,-4.1212,-4.1216,-4.1186,-4.1187,-4.109,-4.1078,-4.1187,-4.1186,-4.1185,0,-4.0952,-4.0943,-4.0985,-4.0989,-4.1004,-4.1009,-4.1016,-4.106,-4.1065,-4.1092,-4.1084,-4.1094,-4.1103,-4.1109,-4.1138,-4.1147,-4.1161,-4.1127,-4.1162,-4.1151,-4.1157,-4.1156,-4.1155,-4.1117,-4.1116,-4.1115,-4.1114,0,-4.0856,-4.0877,-4.0887,-4.0904,-4.0913,-4.0928,-4.0945,-4.0945,-4.0994,-4.0998,-4.1005,-4.1013,-4.1028,-4.1035,-4.1051,-4.1067,-4.1097,-4.1104,-4.1097,-4.1082,-4.1069,-4.1073,-4.1188,-4.1104,-4.1105,-4.1106,-4.1106,-4.1107,-4.078,-4.0775,-4.0804,-4.0814,-4.0833,-4.085,-4.0848,-4.0876,-4.0884,-4.0901,-4.0927,-4.0931,-4.0955,-4.098,-4.0993,-4.0996,-4.1013,-4.1005,-4.1002,-4.0998,-4.0991,-4.1072,-4.0999,-4.0999,-4.1,-4.1,-4.1,0,-4.0684,-4.0707,-4.0716,-4.0741,-4.0749,-4.0783,-4.0805,-4.0808,-4.0812,-4.0833,-4.0843,-4.0852,-4.0861,-4.0893,-4.0905,-4.0901,-4.0915,-4.0902,-4.09,-4.0903,-4.0976,-4.0979,-4.089,-4.089,-4.089,-4.089,-4.089,-4.089,-4.0635,-4.0628,-4.0653,-4.0657,-4.0679,-4.0685,-4.0694,-4.071,-4.0727,-4.0736,-4.0745,-4.0767,-4.0793,-4.0808,-4.0817,-4.0827,-4.0827,-4.0809,-4.0822,-4.0888,-4.0898,-4.0908,-4.0911,-4.081,-4.081,-4.0749,-4.0749,-4.0748]}]]